Location: Kott?ru
(16.6209°N, 80.6208°E)
Time: 20:10:19
(UTC+00:00)

Cosmos 2285 Rocket - Pass Details

Date: 18 September 2020
Orbit: 970 x 1000 km, 74.0° (Epoch: 27 October)

Event Time Altitude Azimuth Distance (km) Brightness Sun altitude
Rises 14:08:18 0° 186° (S) 3,649 7.0 -22.6°
Reaches altitude 10° 14:10:51 10° 183° (S) 2,703 6.3 -23.3°
Maximum altitude 14:17:02 66° 102° (ESE) 1,049 3.8 -24.7°
Drops below altitude 10° 14:23:15 10° 21° (NNE) 2,714 6.2 -26.2°
Sets 14:25:48 0° 18° (NNE) 3,665 6.9 -26.8°
